Location: NovaLab Observatory
(42.8167°N, 71.2500°W)
Time: 06:54:17
(UTC-05:00)

Daily predictions for brighter satellites

Satellite Brightness Start Highest point End
(mag) Time Altitude Azimuth Time Altitude Azimuth Time Altitude Azimuth
FALCON 9 R/B 4.1 17:49:07 10° WSW 17:54:49 53° S 18:15:16 10° ESE
Cosmos 1633 2.7 17:56:04 10° S 17:59:30 50° E 18:03:00 10° NNE
Cosmos 1452 Rocket 3.6 17:54:38 10° NNW 17:59:56 88° WSW 18:05:11 10° SSE
COSMO-SKYMED 1 2.6 17:56:10 10° NNE 18:00:33 88° W 18:04:54 10° SSW
FENGYUN 3A 3.7 17:55:21 10° SSE 18:00:45 89° ENE 18:06:13 10° NNW
Gbstr 26 Del rocket 3.9 17:58:47 10° S 18:01:54 25° SE 18:05:05 10° ENE
Okean 3 3.4 17:58:17 10° N 18:02:27 72° E 18:06:38 10° SSE
Cosmos 1048 Rocket 4.2 17:58:19 10° S 18:03:27 51° ESE 18:08:32 10° NNE
Sich 1 Rocket 4.0 18:01:48 10° SSE 18:06:00 41° E 18:10:11 10° NNE
Cosmos 44 4.1 18:01:56 10° NW 18:06:55 61° WSW 18:12:06 10° SSE
ALOS 2.6 18:02:18 10° S 18:06:57 75° WSW 18:11:39 10° NNW
Cosmos 1464 Rocket 4.0 18:01:30 10° N 18:07:35 63° E 18:13:40 10° SSE
CZ-2C R/B 4.4 18:04:06 10° N 18:08:29 58° WNW 18:12:48 10° SSW
FengYun 1-2 T 4.4 18:06:13 10° SE 18:11:31 51° ENE 18:16:49 10° N
Cosmos 2227 Rocket 3.6 18:08:18 10° SW 18:13:36 41° WNW 18:18:57 10° NNE
Cosmos 2237 Rocket 4.3 18:08:57 10° NW 18:13:49 31° WSW 18:18:42 10° SSW
USA 186 4.0 18:14:32 10° ENE 18:14:32 10° ENE 18:14:58 10° NE
Okean 2 Rocket 4.0 18:13:50 10° SE 18:17:25 25° E 18:21:02 10° NNE
SPOT 3 Rocket 3.6 18:12:19 10° SSE 18:17:32 85° ENE 18:22:46 10° NNW
Cosmos 1420 Rocket 4.2 18:12:16 10° NNW 18:17:34 77° WSW 18:22:52 10° SSE
Cosmos 921 Rocket 3.1 18:13:41 10° N 18:18:10 61° ENE 18:22:35 10° SSE
Cosmos 1674 Rocket 4.2 18:15:20 10° NNW 18:19:37 59° W 18:23:50 10° S
SL-16 R/B 2.6 18:14:43 10° NNW 18:20:22 69° WSW 18:25:58 10° SSE
ERS-2 2.3 18:20:51 10° SSE 18:24:24 50° ENE 18:28:00 10° N
Cosmos 2297 Rocket 3.7 18:21:49 10° SW 18:27:02 37° WNW 18:32:18 10° N
SeaSat 1 3.3 18:24:50 13° ESE 18:28:28 30° NE 18:32:44 10° N
COSMOS 2455 3.6 18:23:26 10° SSE 18:28:31 29° ESE 18:33:38 10° NE
USA 215 4.0 18:24:21 11° ENE 18:29:50 33° SE 18:35:35 10° S
Cosmos 1908 Rocket 3.7 18:26:16 10° S 18:30:44 80° W 18:35:13 10° N
H-2A R/B 2.8 18:28:47 10° SSE 18:32:42 85° WSW 18:36:37 10° NNW
Cosmos 1603 3.7 18:33:44 10° NNW 18:39:20 59° ENE 18:44:50 10° SE
Cosmos 1184 Rocket 3.8 18:37:34 10° NNE 18:40:14 26° ENE 18:40:14 26° ENE
SJ-6B 2.8 18:40:11 10° SSE 18:43:52 54° ENE 18:47:41 10° N
Cosmos 2034 Rocket 4.0 18:38:43 10° N 18:45:09 89° E 18:51:30 10° S
Envisat 3.1 18:43:40 10° SE 18:48:33 50° ENE 18:53:28 10° N
Meteor 1-13 Rocket 4.2 18:44:46 10° N 18:50:14 58° ENE 18:55:38 10° SSE
Cosmos 2263 Rocket 2.8 18:47:45 10° SSE 18:52:39 33° ESE 18:55:41 20° NE
OE (NEXTSAT) 4.3 18:51:07 10° WSW 18:54:40 83° SSE 18:55:48 41° ENE
Cosmos 1634 Rocket 4.2 18:49:40 10° N 18:55:34 44° ENE 19:01:25 10° SSE
Cosmos 1975 Rocket 3.1 18:52:11 10° N 18:56:39 82° W 19:01:07 10° S
CZ-2D R/B 3.2 18:52:55 10° SSE 18:56:47 66° ENE 19:00:39 10° N
Resurs 1-3 4.2 18:56:04 32° E 18:56:53 35° ENE 19:00:53 10° N
Cosmos 494 Rocket 4.0 18:52:12 10° S 18:57:18 57° ESE 19:02:23 10° NNE
HJ-1C 3.4 18:54:21 10° S 18:57:46 82° WSW 19:01:12 10° NNW
ATLAS CENTAUR R/B 2.2 18:53:59 10° NNW 18:57:47 33° NE 18:58:21 32° ENE
Cosmos 1816 Rocket 4.4 18:52:07 10° S 18:58:27 75° E 19:04:49 10° N
Okean 1 4.3 18:55:08 10° NNW 18:58:59 48° W 19:02:49 10° SSW
CENTAUR R/B 3.3 18:53:59 10° WSW 18:59:55 51° NW 19:06:45 10° NNE
Cosmos 1110 Rocket 3.9 18:58:23 10° NNW 19:03:42 81° ENE 19:09:01 10° SSE
CRYOSAT 2 4.2 18:59:10 10° N 19:04:05 85° E 19:08:56 10° S
USA 267 4.1 19:01:04 22° ENE 19:04:17 34° NNE 19:10:02 10° NW
Cosmos 1602 4.0 19:00:41 10° SSW 19:04:34 68° W 19:08:26 10° N
Thor Agena Rocket 3.4 19:00:41 10° NNE 19:05:46 71° ESE 19:10:47 10° S
Meteor 1-4 Rocket 2.3 19:03:44 10° S 19:07:15 83° E 19:10:51 10° NNE
BREEZE-M R/B 3.9 19:07:38 10° WNW 19:10:24 69° SSW 19:14:38 23° SE
Resurs 01 Rocket 1.6 19:15:19 51° ESE 19:15:53 55° ENE 19:20:14 10° N
OAO 2 Rocket 4.3 19:14:26 10° WSW 19:18:50 32° S 19:19:59 29° SSE
Meteor 2-4 Rocket 3.6 19:14:49 10° N 19:20:38 86° ENE 19:26:15 10° S
Meteor 1-5 Rocket 4.2 19:17:40 10° S 19:23:29 65° E 19:29:25 10° NNE
YAOGAN 6 4.2 19:26:58 25° N 19:26:58 25° N 19:28:35 10° N
Cosmos 1536 Rocket 3.6 19:22:47 10° N 19:26:42 59° NE 19:26:42 59° NE
Alouette 2 Rocket 3.2 19:24:11 10° SSW 19:27:44 76° WNW 19:31:37 10° N
CZ-4C R/B 2.9 19:21:58 10° NNW 19:29:03 64° NE 19:31:56 40° ESE
SL-8 R/B 4.4 19:26:30 10° WNW 19:31:04 43° N 19:31:56 38° NNE
Cosmos 1536 4.4 19:27:12 10° S 19:34:42 14° N 19:35:20 10° N
SJ-11-01 4.4 19:32:31 57° NE 19:32:31 57° NE 19:36:44 10° N
Cosmos 1331 Rocket 4.4 19:28:24 10° NNW 19:33:39 64° WSW 19:37:33 18° S
H-2A R/B 4.2 19:37:58 14° NNE 19:37:58 14° NNE 19:39:05 10° NNE
Spot 2 Rocket 3.3 19:37:42 69° ESE 19:38:09 75° ENE 19:43:14 10° N
Meteor 1-11 Rocket 4.0 19:33:16 10° SSW 19:38:49 68° WNW 19:44:32 10° N
Geosat 4.3 19:40:31 51° SSE 19:40:31 51° SSE 19:44:25 10° SSW
Cosmos 1943 3.2 19:38:09 10° NNW 19:43:49 78° WSW 19:45:39 45° S
USA 186 3.9 19:46:05 25° NW 19:46:05 25° NW 19:47:44 10° NNW
Gbstr 26 Del rocket 3.7 19:44:49 10° WSW 19:47:48 44° WNW 19:47:48 44° WNW
Cosmos 2251 Rocket 3.6 19:49:09 10° SSW 19:54:22 75° WNW 19:56:08 42° N
Cosmos 1939 Rocket 4.1 20:01:06 40° NW 20:01:06 40° NW 20:04:07 10° NNW
Cosmos 1302 Rocket 4.4 19:59:59 10° NNW 20:05:06 59° WSW 20:05:18 58° WSW
SeaSat 1 3.5 20:04:39 35° SW 20:05:50 41° WSW 20:10:31 10° NW
USA 215 3.3 20:11:44 56° NNE 20:13:10 74° NW 20:19:41 10° WSW
COSMOS 2455 3.6 20:08:22 10° SW 20:14:10 49° NW 20:17:37 24° N
Cosmos 2279 Rocket 4.1 20:13:15 10° NNW 20:19:28 71° W 20:19:44 70° WSW
Cosmos 2263 Rocket 3.4 20:31:19 10° SW 20:36:28 37° WNW 20:37:36 34° NNW
ATLAS CENTAUR R/B 4.0 20:33:00 10° NW 20:34:39 20° WNW 20:34:39 20° WNW
USA 267 3.8 20:48:24 54° NW 20:48:24 54° NW 20:53:18 10° NW
Resurs 01 Rocket 4.4 20:52:52 14° W 20:52:52 14° W 20:55:07 10° WNW
CZ-4C R/B 4.2 21:11:00 10° NW 21:17:11 33° WSW 21:17:11 33° WSW
